Hilo, HI

12:56 PM HST on August 29, 2016 (GMT -1000)
Hilo International

Weather History for PHTO - October, 2013

Change the Weather History Date:

Saturday, October 5, 2013

  Actual Average Record
Temperature  
Mean Temperature 75 °F 76 °F  
Max Temperature 81 °F 83 °F 88 °F (1967)
Min Temperature 69 °F 69 °F 63 °F (1999)
Degree Days  
Heating Degree Days 0 0  
Month to date heating degree days 0 0  
Since 1 July heating degree days 0 0  
Cooling Degree Days 10 11  
Month to date cooling degree days 60 55  
Year to date cooling degree days 2656 2463  
Growing Degree Days 25 (Base 50)    
Moisture  
Dew Point 70 °F    
Average Humidity 85    
Maximum Humidity 100    
Minimum Humidity 69    
Precipitation  
Precipitation 0.36 in 0.29 in 2.50 in (2006)
Month to date precipitation 0.55 1.47  
Year to date precipitation 69.07 91.35  
Snow  
Snow 0.00 in - - ()
Month to date snowfall 0.0  
Since 1 July snowfall 0.0  
Since 1 September snowfall 0.0  
Snow Depth 0.00 in    
Sea Level Pressure  
Sea Level Pressure 29.99 in    
Wind  
Wind Speed 5 mph (WSW)    
Max Wind Speed 13 mph    
Max Gust Speed 15 mph    
Visibility 8 miles    
Events Rain    
T = Trace of Precipitation, MM = Missing Value Source: NWS Daily Summary

Daily Weather History Graph

Daily Weather History Graph

Search for Another Location

Airport or City:

Trip Planner

Search our weather history database for the weather conditions in past years. The results will help you decide how hot, cold, wet, or windy it might be!

Date:

Astronomy

Oct. 05, 2013 Rise Set
Actual Time 6:12 AM HST 6:04 PM HST
Civil Twilight 5:50 AM HST 6:26 PM HST
Nautical Twilight 5:24 AM HST 6:52 PM HST
Astronomical Twilight 4:59 AM HST 7:17 PM HST
Moon 6:52 AM HST (10/5) 6:44 PM HST (10/5)
Length of Visible Light 12h 36m
Length of Day
11h 52m
New Moon, 1% of the Moon is Illuminated
Oct 5
New Moon
Oct 11
First Quarter
Oct 18
Full
Oct 26
Last Quarter
Nov 3
New

Hourly Weather History & Observations

Time (HST) Temp. Heat Index Dew Point Humidity Pressure Visibility Wind Dir Wind Speed Gust Speed Precip Events Conditions
12:53 AM 72.0 °F - 70.0 °F 93% 30.01 in 8.0 mi South 6.9 mph - 0.00 in Rain Light Rain
1:17 AM 71.1 °F - 70.0 °F 96% 30.00 in 10.0 mi SW 6.9 mph - 0.02 in   Overcast
1:51 AM 71.6 °F - 68.0 °F 88% 29.99 in 10.0 mi WSW 6.9 mph - 0.02 in Rain Light Rain
1:53 AM 71.1 °F - 68.0 °F 90% 29.99 in 10.0 mi SW 6.9 mph - 0.02 in   Overcast
2:12 AM 70.0 °F - 69.1 °F 97% 30.00 in 2.5 mi Variable 5.8 mph - 0.03 in Rain Heavy Rain
2:21 AM 70.0 °F - 69.1 °F 97% 30.00 in 3.0 mi WSW 5.8 mph - 0.08 in Rain Rain
2:53 AM 70.0 °F - 69.1 °F 97% 29.98 in 10.0 mi West 9.2 mph - 0.11 in   Overcast
3:53 AM 70.0 °F - 66.9 °F 90% 29.97 in 5.0 mi WSW 8.1 mph - 0.04 in Rain Light Rain
4:53 AM 70.0 °F - 66.9 °F 90% 29.98 in 10.0 mi SW 6.9 mph - 0.01 in   Mostly Cloudy
5:53 AM 70.0 °F - 66.9 °F 90% 29.98 in 10.0 mi SW 4.6 mph - N/A   Mostly Cloudy
6:53 AM 71.1 °F - 66.9 °F 87% 29.99 in 10.0 mi Calm Calm - N/A   Mostly Cloudy
7:24 AM 71.1 °F - 68.0 °F 90% 30.01 in 7.0 mi SE 3.5 mph - 0.00 in Rain Light Rain
7:51 AM 71.6 °F - 69.8 °F 94% 30.02 in 10.0 mi West 4.6 mph - 0.00 in   Overcast
7:53 AM 72.0 °F - 70.0 °F 93% 30.02 in 10.0 mi WNW 4.6 mph - 0.00 in   Overcast
8:53 AM 73.9 °F - 72.0 °F 93% 30.03 in 10.0 mi West 8.1 mph - 0.01 in   Overcast
9:53 AM 77.0 °F - 70.0 °F 79% 30.03 in 10.0 mi NW 4.6 mph - N/A   Mostly Cloudy
10:15 AM 75.0 °F - 72.0 °F 90% 30.04 in 2.5 mi ESE 6.9 mph - 0.00 in Rain Light Rain
10:25 AM 73.9 °F - 73.0 °F 97% 30.03 in 4.0 mi South 3.5 mph - 0.00 in Rain Light Rain
10:53 AM 78.1 °F - 71.1 °F 79% 30.02 in 10.0 mi West 6.9 mph - 0.00 in   Overcast
11:53 AM 81.0 °F 84.1 °F 69.1 °F 67% 30.00 in 10.0 mi Calm Calm - N/A   Overcast
12:51 PM 78.8 °F - 71.6 °F 78% 29.98 in 10.0 mi North - - 0.00 in Rain Light Rain
12:53 PM 77.0 °F - 71.1 °F 82% 29.99 in 6.0 mi East 6.9 mph - 0.00 in Rain Light Rain
1:16 PM 75.0 °F - 72.0 °F 90% 29.98 in 7.0 mi NNE 4.6 mph - 0.02 in Rain Light Rain
1:53 PM 75.0 °F - 72.0 °F 90% 29.97 in 10.0 mi North 6.9 mph - 0.02 in   Overcast
2:16 PM 75.0 °F - 73.0 °F 94% 29.96 in 10.0 mi West 8.1 mph - 0.01 in   Overcast
2:53 PM 77.0 °F - 73.0 °F 88% 29.95 in 10.0 mi Variable 5.8 mph - 0.01 in   Overcast
3:15 PM 75.0 °F - 72.0 °F 90% 29.95 in 3.0 mi NNE 3.5 mph - 0.02 in Rain Light Rain
3:25 PM 75.0 °F - 72.0 °F 90% 29.95 in 2.5 mi North 3.5 mph - 0.02 in Rain Rain
3:30 PM 73.9 °F - 72.0 °F 93% 29.95 in 1.8 mi Calm Calm - 0.03 in Rain Heavy Rain
3:46 PM 73.9 °F - 73.0 °F 97% 29.95 in 3.0 mi West 5.8 mph - 0.13 in Rain Light Rain
3:53 PM 73.9 °F - 72.0 °F 93% 29.95 in 10.0 mi West 5.8 mph - 0.13 in   Overcast
4:26 PM 73.9 °F - 72.0 °F 93% 29.95 in 6.0 mi West 6.9 mph - 0.01 in Rain Light Rain
4:53 PM 73.9 °F - 72.0 °F 93% 29.96 in 10.0 mi West 5.8 mph - 0.01 in   Overcast
5:23 PM 73.9 °F - 71.1 °F 91% 29.96 in 10.0 mi WSW 6.9 mph - 0.00 in Rain Light Rain
5:40 PM 73.9 °F - 71.1 °F 91% 29.96 in 10.0 mi West 8.1 mph - 0.00 in   Overcast
5:53 PM 73.9 °F - 71.1 °F 91% 29.96 in 10.0 mi West 8.1 mph - 0.00 in Rain Light Rain
6:53 PM 72.0 °F - 70.0 °F 93% 29.98 in 7.0 mi WSW 8.1 mph - 0.00 in Rain Light Rain
7:53 PM 72.0 °F - 70.0 °F 93% 30.00 in 10.0 mi WSW 6.9 mph - 0.06 in   Overcast
8:12 PM 71.1 °F - 70.0 °F 96% 30.00 in 10.0 mi SW 4.6 mph - N/A   Mostly Cloudy
8:53 PM 72.0 °F - 71.1 °F 97% 30.01 in 10.0 mi Calm Calm - N/A   Mostly Cloudy
9:53 PM 72.0 °F - 70.0 °F 93% 30.02 in 10.0 mi WSW 5.8 mph - N/A   Mostly Cloudy
10:05 PM 72.0 °F - 71.1 °F 97% 30.03 in 10.0 mi East 6.9 mph - 0.00 in Rain Light Rain
10:14 PM 72.0 °F - 71.1 °F 97% 30.03 in 7.0 mi Calm Calm - 0.00 in Rain Light Rain
10:49 PM 71.6 °F - 71.6 °F 100% 30.03 in 2.5 mi West 3.5 mph - 0.02 in Rain Heavy Rain
10:53 PM 72.0 °F - 71.1 °F 97% 30.02 in 2.5 mi West 5.8 mph - 0.04 in Rain Heavy Rain
10:55 PM 72.0 °F - 71.1 °F 97% 30.02 in 3.0 mi West 8.1 mph - 0.02 in Rain Light Rain
11:06 PM 72.0 °F - 72.0 °F 100% 30.02 in 10.0 mi West 6.9 mph - 0.03 in   Overcast
11:53 PM 72.0 °F - 70.0 °F 93% 30.01 in 9.0 mi West 6.9 mph - 0.03 in Rain Light Rain